Zurück zum Katalog

INTELSAT 10

PAS 10

AktivKommunikationGEO
NORAD 26766·PAYLOAD·🇺🇸 United States

Gestartet May 15, 2001 von Baikonur Cosmodrome

Loading…

TLE

AktuellSource: Space-Track

Epoche: Sep 14, 2026, 05:15 UTC

1 26766U 01019A   26257.21943740 -.00000164  00000-0  00000-0 0  9992
2 26766   9.2841  58.2730 0001630 215.0368 162.4370  0.99042724 46463

Verfolge INTELSAT 10 in Echtzeit mit AllMySat

Download on the App Store